^^
Station Historical Data
 
Daily Summary for June 17, 2018 Units:  English    Metric   Both
« Previous Day
Next Day »
Daily Weekly Monthly Yearly Custom
  Current: High: Low: Average:
Temperature: 93.4 °F TemperatureF °F 77.0 °F 84.2 °F
Dew Point: 72.5 °F DewpointF °F 69.2 °F 71.6 °F
Humidity: 51% Humidity% 49% 66%
Wind Speed: 8.0mph WindSpeedMPHmph 0.0mph 4.6mph
Wind Gust: 17.0mph WindSpeedGustMPHmph - -
WindESE - - SE
Pressure: 29.85 in PressureIn in 29.85 in -
Precipitation: 0.00 in      
Historical Graphs
 
 
Tabular Data for June 17, 2018
Time Temperature Dew Point Pressure Wind Wind Speed Wind Gust Humidity Rainfall Rate (Hourly) solar Conditions
TemperatureF °F DewpointF °F PressureIn in Calm     Humidity% HourlyPrecipIn in SolarRadiationWatts/m^2 W/m2 Conditions
00:04 85.6 °F 71.5 °F 29.86 in SE 2.0 mph 17.0 mph 63% 0.00 in 0.00 W/m2
00:09 85.6 °F 71.5 °F 29.86 in SSE 9.0 mph 17.0 mph 63% 0.00 in 0.00 W/m2
00:14 85.3 °F 71.2 °F 29.86 in South 7.0 mph 17.0 mph 63% 0.00 in 0.00 W/m2
00:19 85.3 °F 71.2 °F 29.86 in SE 5.0 mph 13.0 mph 63% 0.00 in 0.00 W/m2
00:24 85.1 °F 71.5 °F 29.87 in SSE 6.0 mph 13.0 mph 64% 0.00 in 0.00 W/m2
00:29 85.0 °F 71.4 °F 29.87 in SE 2.0 mph 17.0 mph 64% 0.00 in 0.00 W/m2
00:34 85.0 °F 71.4 °F 29.86 in SSE 9.0 mph 18.0 mph 64% 0.00 in 0.00 W/m2
00:39 84.9 °F 71.3 °F 29.86 in SE 13.0 mph 18.0 mph 64% 0.00 in 0.00 W/m2
00:44 84.8 °F 71.2 °F 29.86 in ESE 3.0 mph 16.0 mph 64% 0.00 in 0.00 W/m2
00:49 84.7 °F 71.1 °F 29.87 in South 3.0 mph 15.0 mph 64% 0.00 in 0.00 W/m2
00:54 84.7 °F 71.1 °F 29.87 in SSE 6.0 mph 16.0 mph 64% 0.00 in 0.00 W/m2
00:59 84.6 °F 71.1 °F 29.86 in SE 7.0 mph 16.0 mph 64% 0.00 in 0.00 W/m2
01:04 84.5 °F 71.0 °F 29.86 in SSE 6.0 mph 15.0 mph 64% 0.00 in 0.00 W/m2
01:09 84.5 °F 71.0 °F 29.87 in SE 5.0 mph 15.0 mph 64% 0.00 in 0.00 W/m2
01:14 84.2 °F 70.7 °F 29.87 in South 8.0 mph 15.0 mph 64% 0.00 in 0.00 W/m2
01:19 84.2 °F 70.7 °F 29.87 in South 4.0 mph 17.0 mph 64% 0.00 in 0.00 W/m2
01:24 84.0 °F 70.5 °F 29.87 in South 2.0 mph 17.0 mph 64% 0.00 in 0.00 W/m2
01:29 84.0 °F 70.5 °F 29.87 in South 7.0 mph 17.0 mph 64% 0.00 in 0.00 W/m2
01:34 83.9 °F 70.4 °F 29.87 in South 5.0 mph 13.0 mph 64% 0.00 in 0.00 W/m2
01:39 83.6 °F 70.1 °F 29.87 in SSE 11.0 mph 17.0 mph 64% 0.00 in 0.00 W/m2
01:44 83.6 °F 70.1 °F 29.87 in South 5.0 mph 17.0 mph 64% 0.00 in 0.00 W/m2
01:49 83.4 °F 70.4 °F 29.87 in SE 3.0 mph 12.0 mph 65% 0.00 in 0.00 W/m2
01:54 83.3 °F 70.3 °F 29.87 in SSE 6.0 mph 12.0 mph 65% 0.00 in 0.00 W/m2
01:59 83.1 °F 70.5 °F 29.87 in South 2.0 mph 12.0 mph 66% 0.00 in 0.00 W/m2
02:04 83.0 °F 70.0 °F 29.87 in South 7.0 mph 11.0 mph 65% 0.00 in 0.00 W/m2
02:09 82.9 °F 69.9 °F 29.87 in South 8.0 mph 10.0 mph 65% 0.00 in 0.00 W/m2
02:14 82.7 °F 70.2 °F 29.87 in South 11.0 mph 11.0 mph 66% 0.00 in 0.00 W/m2
02:19 82.5 °F 70.0 °F 29.87 in SSE 3.0 mph 12.0 mph 66% 0.00 in 0.00 W/m2
02:24 82.3 °F 69.8 °F 29.87 in South 7.0 mph 12.0 mph 66% 0.00 in 0.00 W/m2
02:29 82.2 °F 69.7 °F 29.87 in SSW 8.0 mph 15.0 mph 66% 0.00 in 0.00 W/m2
02:34 82.1 °F 69.6 °F 29.87 in SE 7.0 mph 15.0 mph 66% 0.00 in 0.00 W/m2
02:39 82.0 °F 69.5 °F 29.87 in South 5.0 mph 14.0 mph 66% 0.00 in 0.00 W/m2
02:44 82.0 °F 69.5 °F 29.88 in South 4.0 mph 12.0 mph 66% 0.00 in 0.00 W/m2
02:49 81.9 °F 69.4 °F 29.88 in South 5.0 mph 12.0 mph 66% 0.00 in 0.00 W/m2
02:54 81.7 °F 69.7 °F 29.87 in SSE 5.0 mph 12.0 mph 67% 0.00 in 0.00 W/m2
02:59 81.5 °F 69.5 °F 29.88 in South 5.0 mph 12.0 mph 67% 0.00 in 0.00 W/m2
03:04 81.3 °F 69.7 °F 29.87 in South 5.0 mph 12.0 mph 68% 0.00 in 0.00 W/m2
03:09 81.2 °F 69.6 °F 29.88 in SSE 7.0 mph 14.0 mph 68% 0.00 in 0.00 W/m2
03:14 81.1 °F 69.5 °F 29.88 in South 6.0 mph 14.0 mph 68% 0.00 in 0.00 W/m2
03:19 81.1 °F 70.0 °F 29.88 in South 3.0 mph 11.0 mph 68% 0.00 in 0.00 W/m2
03:24 81.0 °F 69.4 °F 29.88 in SSE 9.0 mph 12.0 mph 68% 0.00 in 0.00 W/m2
03:29 80.7 °F 69.6 °F 29.88 in SSW 4.0 mph 13.0 mph 69% 0.00 in 0.00 W/m2
03:34 80.7 °F 69.6 °F 29.88 in South 7.0 mph 13.0 mph 69% 0.00 in 0.00 W/m2
03:39 80.5 °F 69.4 °F 29.88 in SSE 7.0 mph 10.0 mph 69% 0.00 in 0.00 W/m2
03:44 80.2 °F 69.5 °F 29.88 in SSE 6.0 mph 10.0 mph 70% 0.00 in 0.00 W/m2
03:49 79.9 °F 69.2 °F 29.88 in SSE 6.0 mph 9.0 mph 70% 0.00 in 0.00 W/m2
03:54 79.9 °F 69.2 °F 29.88 in South 7.0 mph 10.0 mph 70% 0.00 in 0.00 W/m2
03:59 79.8 °F 69.5 °F 29.88 in South 3.0 mph 10.0 mph 71% 0.00 in 0.00 W/m2
04:04 79.7 °F 69.4 °F 29.88 in SSE 5.0 mph 7.0 mph 71% 0.00 in 0.00 W/m2
04:09 79.5 °F 69.7 °F 29.89 in SSE 6.0 mph 9.0 mph 72% 0.00 in 0.00 W/m2
04:14 79.5 °F 69.7 °F 29.89 in SSE 4.0 mph 10.0 mph 72% 0.00 in 0.00 W/m2
04:19 79.5 °F 69.7 °F 29.89 in South 4.0 mph 11.0 mph 72% 0.00 in 0.00 W/m2
04:24 79.4 °F 69.6 °F 29.89 in South 5.0 mph 10.0 mph 72% 0.00 in 0.00 W/m2
04:29 79.4 °F 69.6 °F 29.89 in South 7.0 mph 10.0 mph 72% 0.00 in 0.00 W/m2
04:34 79.3 °F 69.5 °F 29.89 in SSE 4.0 mph 10.0 mph 72% 0.00 in 0.00 W/m2
04:39 79.3 °F 69.5 °F 29.90 in SSE 7.0 mph 10.0 mph 72% 0.00 in 0.00 W/m2
04:44 79.1 °F 69.3 °F 29.89 in SSE 10.0 mph 10.0 mph 72% 0.00 in 0.00 W/m2
04:49 79.0 °F 69.2 °F 29.89 in South 7.0 mph 10.0 mph 72% 0.00 in 0.00 W/m2
04:54 79.0 °F 69.2 °F 29.89 in SE 3.0 mph 13.0 mph 72% 0.00 in 0.00 W/m2
04:59 78.8 °F 69.4 °F 29.89 in South 4.0 mph 12.0 mph 73% 0.00 in 0.00 W/m2
05:04 78.8 °F 69.4 °F 29.89 in SSE 4.0 mph 9.0 mph 73% 0.00 in 0.00 W/m2
05:09 78.7 °F 69.3 °F 29.89 in SSE 2.0 mph 10.0 mph 73% 0.00 in 0.00 W/m2
05:14 78.6 °F 69.2 °F 29.89 in SSE 6.0 mph 10.0 mph 73% 0.00 in 0.00 W/m2
05:19 78.4 °F 69.4 °F 29.89 in SSE 3.0 mph 9.0 mph 74% 0.00 in 0.00 W/m2
05:24 78.5 °F 69.5 °F 29.90 in SE 1.0 mph 9.0 mph 74% 0.00 in 0.00 W/m2
05:29 78.4 °F 69.4 °F 29.89 in SE 4.0 mph 9.0 mph 74% 0.00 in 0.00 W/m2
05:34 78.3 °F 69.3 °F 29.89 in SSE 5.0 mph 7.0 mph 74% 0.00 in 0.00 W/m2
05:39 78.2 °F 69.6 °F 29.89 in SE 3.0 mph 8.0 mph 75% 0.00 in 0.00 W/m2
05:44 78.2 °F 69.6 °F 29.89 in SE 4.0 mph 8.0 mph 75% 0.00 in 0.00 W/m2
05:49 78.1 °F 69.5 °F 29.90 in SE 1.0 mph 8.0 mph 75% 0.00 in 0.00 W/m2
05:54 78.1 °F 69.5 °F 29.90 in Calm   8.0 mph 75% 0.00 in 0.00 W/m2
05:59 77.9 °F 69.3 °F 29.90 in SE 3.0 mph 9.0 mph 75% 0.00 in 0.00 W/m2
06:04 77.8 °F 69.6 °F 29.90 in Calm   9.0 mph 76% 0.00 in 0.00 W/m2
06:09 77.7 °F 69.5 °F 29.90 in SSE 1.0 mph 8.0 mph 76% 0.00 in 0.00 W/m2
06:14 77.6 °F 69.4 °F 29.90 in SSE 4.0 mph 8.0 mph 76% 0.00 in 0.00 W/m2
06:19 77.6 °F 69.4 °F 29.90 in SE 2.0 mph 8.0 mph 76% 0.00 in 0.00 W/m2
06:24 77.5 °F 69.7 °F 29.90 in SSE 4.0 mph 8.0 mph 77% 0.00 in 5.00 W/m2
06:29 77.3 °F 69.5 °F 29.91 in South 2.0 mph 7.0 mph 77% 0.00 in 9.00 W/m2
06:34 77.1 °F 69.3 °F 29.91 in SSE 2.0 mph 9.0 mph 77% 0.00 in 11.00 W/m2
06:39 77.2 °F 69.4 °F 29.90 in South 6.0 mph 9.0 mph 77% 0.00 in 12.00 W/m2
06:44 77.3 °F 69.5 °F 29.91 in South 4.0 mph 9.0 mph 77% 0.00 in 14.00 W/m2
06:49 77.3 °F 69.5 °F 29.90 in SSE 3.0 mph 10.0 mph 77% 0.00 in 18.00 W/m2
06:54 77.3 °F 69.5 °F 29.90 in SSE 4.0 mph 9.0 mph 77% 0.00 in 19.00 W/m2
06:59 77.3 °F 69.9 °F 29.90 in ESE 3.0 mph 8.0 mph 78% 0.00 in 21.00 W/m2
07:04 77.3 °F 69.9 °F 29.90 in SE 1.0 mph 8.0 mph 78% 0.00 in 21.00 W/m2
07:09 77.2 °F 69.8 °F 29.91 in East 2.0 mph 8.0 mph 78% 0.00 in 25.00 W/m2
07:14 77.0 °F 70.0 °F 29.91 in SE 3.0 mph 8.0 mph 79% 0.00 in 28.00 W/m2
07:19 77.1 °F 70.1 °F 29.91 in SSE 5.0 mph 8.0 mph 79% 0.00 in 28.00 W/m2
07:24 77.3 °F 70.3 °F 29.91 in SE 2.0 mph 12.0 mph 79% 0.00 in 30.00 W/m2
07:29 77.4 °F 70.4 °F 29.92 in SSE 1.0 mph 12.0 mph 79% 0.00 in 32.00 W/m2
07:34 77.5 °F 70.5 °F 29.92 in SE 3.0 mph 10.0 mph 79% 0.00 in 33.00 W/m2
07:39 77.6 °F 70.2 °F 29.92 in South 2.0 mph 10.0 mph 78% 0.00 in 37.00 W/m2
07:44 77.8 °F 70.4 °F 29.93 in SSE 2.0 mph 8.0 mph 78% 0.00 in 49.00 W/m2
07:49 77.9 °F 70.5 °F 29.93 in ESE 6.0 mph 8.0 mph 78% 0.00 in 51.00 W/m2
07:54 78.2 °F 70.8 °F 29.92 in ESE 3.0 mph 9.0 mph 78% 0.00 in 53.00 W/m2
07:59 78.5 °F 71.1 °F 29.93 in SE 3.0 mph 9.0 mph 78% 0.00 in 190.00 W/m2
08:04 78.6 °F 71.1 °F 29.93 in South 6.0 mph 8.0 mph 78% 0.00 in 202.00 W/m2
08:09 79.0 °F 71.5 °F 29.93 in SSE 2.0 mph 8.0 mph 78% 0.00 in 218.00 W/m2
08:14 79.2 °F 71.7 °F 29.93 in SSE 3.0 mph 8.0 mph 78% 0.00 in 244.00 W/m2
08:19 79.6 °F 71.7 °F 29.94 in SSE 4.0 mph 10.0 mph 77% 0.00 in 295.00 W/m2
08:24 79.6 °F 72.1 °F 29.94 in SSE 5.0 mph 12.0 mph 78% 0.00 in 302.00 W/m2
08:29 79.6 °F 72.1 °F 29.94 in SSE 5.0 mph 12.0 mph 78% 0.00 in 206.00 W/m2
08:34 79.6 °F 72.5 °F 29.94 in SSE 12.0 mph 12.0 mph 79% 0.00 in 111.00 W/m2
08:39 79.2 °F 72.5 °F 29.95 in South 4.0 mph 11.0 mph 80% 0.00 in 113.00 W/m2
08:44 79.1 °F 72.4 °F 29.95 in SSE 7.0 mph 11.0 mph 80% 0.00 in 97.00 W/m2
08:49 79.5 °F 72.8 °F 29.95 in SSE 4.0 mph 11.0 mph 80% 0.00 in 376.00 W/m2
08:54 79.8 °F 72.7 °F 29.95 in SSE 9.0 mph 10.0 mph 79% 0.00 in 257.00 W/m2
08:59 80.5 °F 73.4 °F 29.95 in SE 3.0 mph 10.0 mph 79% 0.00 in 446.00 W/m2
09:04 81.5 °F 73.6 °F 29.95 in SSE 4.0 mph 7.0 mph 77% 0.00 in 520.00 W/m2
09:09 82.0 °F 73.3 °F 29.95 in SSE 5.0 mph 10.0 mph 75% 0.00 in 575.00 W/m2
09:14 82.3 °F 73.6 °F 29.95 in South 4.0 mph 10.0 mph 75% 0.00 in 589.00 W/m2
09:19 81.9 °F 73.6 °F 29.95 in South 2.0 mph 8.0 mph 76% 0.00 in 218.00 W/m2
09:24 81.2 °F 72.9 °F 29.95 in SSE 10.0 mph 10.0 mph 76% 0.00 in 114.00 W/m2
09:29 80.9 °F 72.6 °F 29.95 in SSE 4.0 mph 9.0 mph 76% 0.00 in 113.00 W/m2
09:34 80.9 °F 73.0 °F 29.95 in SSE 1.0 mph 9.0 mph 77% 0.00 in 120.00 W/m2
09:39 80.8 °F 72.9 °F 29.95 in SSE 6.0 mph 11.0 mph 77% 0.00 in 160.00 W/m2
09:44 80.9 °F 72.6 °F 29.95 in SSE 9.0 mph 11.0 mph 76% 0.00 in 179.00 W/m2
09:49 81.2 °F 72.9 °F 29.95 in SSE 3.0 mph 10.0 mph 76% 0.00 in 162.00 W/m2
09:54 81.3 °F 72.6 °F 29.95 in SSE 5.0 mph 7.0 mph 75% 0.00 in 190.00 W/m2
09:59 81.3 °F 73.0 °F 29.95 in South 2.0 mph 8.0 mph 76% 0.00 in 130.00 W/m2
10:04 81.2 °F 72.5 °F 29.96 in South 8.0 mph 9.0 mph 75% 0.00 in 167.00 W/m2
10:09 81.5 °F 73.2 °F 29.95 in South 1.0 mph 9.0 mph 76% 0.00 in 322.00 W/m2
10:14 82.6 °F 73.5 °F 29.95 in ESE 3.0 mph 9.0 mph 74% 0.00 in 443.00 W/m2
10:19 82.7 °F 73.1 °F 29.95 in ESE 4.0 mph 9.0 mph 73% 0.00 in 329.00 W/m2
10:24 82.8 °F 73.2 °F 29.95 in SE 5.0 mph 10.0 mph 73% 0.00 in 404.00 W/m2
10:29 82.9 °F 73.3 °F 29.95 in South 3.0 mph 11.0 mph 73% 0.00 in 457.00 W/m2
10:34 83.1 °F 73.5 °F 29.95 in South 8.0 mph 11.0 mph 73% 0.00 in 397.00 W/m2
10:39 84.1 °F 74.5 °F 29.96 in ESE 5.0 mph 11.0 mph 73% 0.00 in 731.00 W/m2
10:44 84.3 °F 73.8 °F 29.96 in ESE 4.0 mph 11.0 mph 71% 0.00 in 429.00 W/m2
10:49 84.0 °F 73.1 °F 29.96 in East 6.0 mph 11.0 mph 70% 0.00 in 318.00 W/m2
10:54 83.3 °F 72.9 °F 29.96 in East 5.0 mph 11.0 mph 71% 0.00 in 292.00 W/m2
10:59 83.3 °F 73.3 °F 29.96 in SE 2.0 mph 11.0 mph 72% 0.00 in 251.00 W/m2
11:04 83.2 °F 73.2 °F 29.96 in ENE 2.0 mph 11.0 mph 72% 0.00 in 301.00 W/m2
11:09 83.6 °F 74.0 °F 29.96 in East 4.0 mph 8.0 mph 73% 0.00 in 397.00 W/m2
11:14 85.4 °F 74.0 °F 29.96 in SE 4.0 mph 9.0 mph 69% 0.00 in 693.00 W/m2
11:19 85.4 °F 74.5 °F 29.96 in SSE 5.0 mph 9.0 mph 70% 0.00 in 693.00 W/m2
11:24 85.2 °F 73.4 °F 29.96 in ESE 1.0 mph 9.0 mph 68% 0.00 in 990.00 W/m2
11:29 86.6 °F 74.8 °F 29.96 in ESE 8.0 mph 9.0 mph 68% 0.00 in 1005.00 W/m2
11:34 85.5 °F 74.1 °F 29.96 in ESE 2.0 mph 10.0 mph 69% 0.00 in 327.00 W/m2
11:39 85.0 °F 73.7 °F 29.96 in South 4.0 mph 10.0 mph 69% 0.00 in 295.00 W/m2
11:44 84.8 °F 73.5 °F 29.96 in South 3.0 mph 9.0 mph 69% 0.00 in 264.00 W/m2
11:49 84.8 °F 73.5 °F 29.96 in SSE 6.0 mph 8.0 mph 69% 0.00 in 229.00 W/m2
11:54 84.6 °F 73.7 °F 29.96 in SE 1.0 mph 8.0 mph 70% 0.00 in 260.00 W/m2
11:59 85.5 °F 73.7 °F 29.96 in SE 5.0 mph 9.0 mph 68% 0.00 in 294.00 W/m2
12:04 86.7 °F 74.4 °F 29.96 in ENE 5.0 mph 10.0 mph 67% 0.00 in 547.00 W/m2
12:09 87.0 °F 74.2 °F 29.96 in ESE 1.0 mph 10.0 mph 66% 0.00 in 441.00 W/m2
12:14 86.5 °F 73.3 °F 29.95 in SSE 5.0 mph 14.0 mph 65% 0.00 in 408.00 W/m2
12:19 86.2 °F 73.5 °F 29.95 in SE 2.0 mph 11.0 mph 66% 0.00 in 420.00 W/m2
12:24 86.4 °F 73.7 °F 29.95 in East 2.0 mph 8.0 mph 66% 0.00 in 348.00 W/m2
12:29 86.5 °F 73.3 °F 29.95 in East 9.0 mph 11.0 mph 65% 0.00 in 329.00 W/m2
12:34 86.4 °F 73.2 °F 29.95 in SSE 4.0 mph 11.0 mph 65% 0.00 in 439.00 W/m2
12:39 86.7 °F 73.5 °F 29.94 in ESE 3.0 mph 10.0 mph 65% 0.00 in 411.00 W/m2
12:44 87.1 °F 74.3 °F 29.94 in SE 7.0 mph 11.0 mph 66% 0.00 in 371.00 W/m2
12:49 87.7 °F 74.0 °F 29.94 in ESE 7.0 mph 11.0 mph 64% 0.00 in 882.00 W/m2
12:54 87.5 °F 73.8 °F 29.94 in ESE 1.0 mph 9.0 mph 64% 0.00 in 258.00 W/m2
12:59 86.3 °F 73.6 °F 29.94 in ESE 3.0 mph 12.0 mph 66% 0.00 in 299.00 W/m2
13:04 87.0 °F 73.8 °F 29.94 in SSE 1.0 mph 12.0 mph 65% 0.00 in 399.00 W/m2
13:09 87.4 °F 74.2 °F 29.94 in ESE 4.0 mph 10.0 mph 65% 0.00 in 200.00 W/m2
13:14 86.6 °F 74.3 °F 29.93 in ESE 4.0 mph 11.0 mph 67% 0.00 in 334.00 W/m2
13:19 86.5 °F 74.2 °F 29.93 in ENE 5.0 mph 10.0 mph 67% 0.00 in 250.00 W/m2
13:24 86.4 °F 74.1 °F 29.93 in East 6.0 mph 10.0 mph 67% 0.00 in 144.00 W/m2
13:29 86.1 °F 73.8 °F 29.93 in SE 4.0 mph 9.0 mph 67% 0.00 in 151.00 W/m2
13:34 86.4 °F 74.1 °F 29.93 in SSE 7.0 mph 10.0 mph 67% 0.00 in 165.00 W/m2
13:39 85.3 °F 73.9 °F 29.93 in SSW 6.0 mph 10.0 mph 69% 0.00 in 207.00 W/m2
13:44 85.4 °F 74.5 °F 29.93 in South 1.0 mph 9.0 mph 70% 0.00 in 241.00 W/m2
13:49 85.7 °F 73.9 °F 29.93 in SE 4.0 mph 8.0 mph 68% 0.00 in 255.00 W/m2
13:54 86.1 °F 74.3 °F 29.93 in SSE 2.0 mph 8.0 mph 68% 0.00 in 213.00 W/m2
13:59 86.1 °F 74.3 °F 29.92 in SSE 1.0 mph 5.0 mph 68% 0.00 in 209.00 W/m2
14:04 88.3 °F 75.5 °F 29.92 in SE 3.0 mph 5.0 mph 66% 0.00 in 297.00 W/m2
14:09 89.0 °F 75.2 °F 29.92 in SE 2.0 mph 5.0 mph 64% 0.00 in 234.00 W/m2
14:14 88.1 °F 73.9 °F 29.91 in SE 4.0 mph 4.0 mph 63% 0.00 in 244.00 W/m2
14:19 88.3 °F 74.1 °F 29.91 in SSE 1.0 mph 10.0 mph 63% 0.00 in 1042.00 W/m2
14:24 90.7 °F 73.9 °F 29.91 in East 6.0 mph 13.0 mph 58% 0.00 in 958.00 W/m2
14:29 90.8 °F 73.9 °F 29.91 in ESE 4.0 mph 13.0 mph 58% 0.00 in 176.00 W/m2
14:34 90.7 °F 74.4 °F 29.91 in SSE 2.0 mph 12.0 mph 59% 0.00 in 1000.00 W/m2
14:39 90.3 °F 73.5 °F 29.91 in SE 2.0 mph 11.0 mph 58% 0.00 in 1000.00 W/m2
14:44 89.7 °F 72.9 °F 29.90 in ESE 7.0 mph 11.0 mph 58% 0.00 in 369.00 W/m2
14:49 91.0 °F 75.1 °F 29.90 in ESE 3.0 mph 11.0 mph 60% 0.00 in 998.00 W/m2
14:54 91.7 °F 73.7 °F 29.90 in SE 5.0 mph 11.0 mph 56% 0.00 in 265.00 W/m2
14:59 91.3 °F 74.4 °F 29.90 in ESE 9.0 mph 15.0 mph 58% 0.00 in 946.00 W/m2
15:04 91.6 °F 73.6 °F 29.89 in East 9.0 mph 15.0 mph 56% 0.00 in 932.00 W/m2
15:09 91.6 °F 73.1 °F 29.90 in SE 4.0 mph 14.0 mph 55% 0.00 in 243.00 W/m2
15:14 92.1 °F 73.0 °F 29.89 in SSE 5.0 mph 11.0 mph 54% 0.00 in 988.00 W/m2
15:19 92.4 °F 73.3 °F 29.89 in SE 3.0 mph 11.0 mph 54% 0.00 in 949.00 W/m2
15:24 92.1 °F 73.0 °F 29.89 in SE 4.0 mph 12.0 mph 54% 0.00 in 172.00 W/m2
15:29 92.4 °F 73.3 °F 29.89 in East 2.0 mph 12.0 mph 54% 0.00 in 359.00 W/m2
15:34 93.2 °F 74.0 °F 29.89 in SSE 8.0 mph 13.0 mph 54% 0.00 in 902.00 W/m2
15:39 92.2 °F 73.1 °F 29.89 in SE 2.0 mph 12.0 mph 54% 0.00 in 271.00 W/m2
15:44 92.5 °F 72.3 °F 29.89 in South 4.0 mph 12.0 mph 52% 0.00 in 872.00 W/m2
15:49 93.1 °F 73.4 °F 29.88 in SE 3.0 mph 12.0 mph 53% 0.00 in 858.00 W/m2
15:54 92.8 °F 73.1 °F 29.88 in ESE 3.0 mph 11.0 mph 53% 0.00 in 163.00 W/m2
15:59 92.9 °F 74.3 °F 29.89 in South 4.0 mph 9.0 mph 55% 0.00 in 863.00 W/m2
16:04 93.3 °F 73.0 °F 29.89 in ESE 10.0 mph 10.0 mph 52% 0.00 in 160.00 W/m2
16:09 93.0 °F 73.3 °F 29.89 in ENE 7.0 mph 14.0 mph 53% 0.00 in 844.00 W/m2
16:14 93.2 °F 73.5 °F 29.88 in South 7.0 mph 14.0 mph 53% 0.00 in 255.00 W/m2
16:19 93.1 °F 72.8 °F 29.88 in South 6.0 mph 11.0 mph 52% 0.00 in 828.00 W/m2
16:24 92.7 °F 73.0 °F 29.88 in East 2.0 mph 11.0 mph 53% 0.00 in 185.00 W/m2
16:29 92.5 °F 72.8 °F 29.88 in South 6.0 mph 11.0 mph 53% 0.00 in 160.00 W/m2
16:34 92.4 °F 73.3 °F 29.88 in SE 3.0 mph 11.0 mph 54% 0.00 in 773.00 W/m2
16:39 93.7 °F 73.4 °F 29.88 in ESE 2.0 mph 10.0 mph 52% 0.00 in 735.00 W/m2
16:44 93.3 °F 74.1 °F 29.88 in East 2.0 mph 15.0 mph 54% 0.00 in 689.00 W/m2
16:49 93.3 °F 74.1 °F 29.88 in ESE 3.0 mph 15.0 mph 54% 0.00 in 656.00 W/m2
16:54 93.7 °F 73.4 °F 29.88 in East 8.0 mph 12.0 mph 52% 0.00 in 236.00 W/m2
16:59 93.2 °F 72.9 °F 29.87 in ESE 3.0 mph 14.0 mph 52% 0.00 in 577.00 W/m2
17:04 93.4 °F 73.1 °F 29.87 in ESE 8.0 mph 16.0 mph 52% 0.00 in 582.00 W/m2
17:09 93.2 °F 73.5 °F 29.87 in East 3.0 mph 16.0 mph 53% 0.00 in 596.00 W/m2
17:14 93.9 °F 73.0 °F 29.87 in SE 4.0 mph 10.0 mph 51% 0.00 in 568.00 W/m2
17:19 93.8 °F 72.3 °F 29.87 in SSE 5.0 mph 12.0 mph 50% 0.00 in 534.00 W/m2
17:24 94.0 °F 73.1 °F 29.87 in ESE 6.0 mph 12.0 mph 51% 0.00 in 585.00 W/m2
17:29 93.8 °F 73.5 °F 29.87 in ESE 10.0 mph 13.0 mph 52% 0.00 in 545.00 W/m2
17:34 94.2 °F 73.3 °F 29.86 in East 4.0 mph 17.0 mph 51% 0.00 in 541.00 W/m2
17:39 94.2 °F 73.8 °F 29.86 in ESE 6.0 mph 17.0 mph 52% 0.00 in 527.00 W/m2
17:44 94.4 °F 72.2 °F 29.86 in East 13.0 mph 13.0 mph 49% 0.00 in 492.00 W/m2
17:49 94.0 °F 71.9 °F 29.86 in SSE 7.0 mph 17.0 mph 49% 0.00 in 469.00 W/m2
17:54 93.7 °F 72.2 °F 29.86 in ESE 7.0 mph 14.0 mph 50% 0.00 in 401.00 W/m2
17:59 93.3 °F 71.8 °F 29.86 in SE 8.0 mph 14.0 mph 50% 0.00 in 346.00 W/m2
18:04 93.5 °F 72.0 °F 29.86 in SSE 4.0 mph 12.0 mph 50% 0.00 in 343.00 W/m2
18:09 93.9 °F 72.4 °F 29.85 in ESE 6.0 mph 12.0 mph 50% 0.00 in 392.00 W/m2
18:14 93.7 °F 72.2 °F 29.85 in NE 3.0 mph 13.0 mph 50% 0.00 in 397.00 W/m2
18:19 93.7 °F 72.2 °F 29.85 in SSE 9.0 mph 14.0 mph 50% 0.00 in 380.00 W/m2
18:24 93.8 °F 72.9 °F 29.85 in SE 4.0 mph 14.0 mph 51% 0.00 in 364.00 W/m2
18:29 93.7 °F 72.8 °F 29.85 in ESE 4.0 mph 12.0 mph 51% 0.00 in 332.00 W/m2
18:34 93.7 °F 72.8 °F 29.85 in ESE 2.0 mph 11.0 mph 51% 0.00 in 281.00 W/m2
18:39 93.4 °F 72.5 °F 29.85 in ESE 8.0 mph 17.0 mph 51% 0.00 in 283.00 W/m2
Southlake, Texas, USA
Compliments of Weather Underground - 4.75 mb